Regional Weather Roundup
Issued by NWS

Home | Current Version | Previous Version | Graphics & Text | Print | Product List | Glossary On
Versions: 1 2 3 4 5 6 7 8 9 10 11 12 13 14 15 16 17 18 19 20 21 22 23 24 25 26 27 28 29 30 31 32 33 34 35 36 37 38 39 40 41 42 43 44 45 46 47 48 49 50
000
ASUS43 KMPX 252301
RWRMN
WEATHER ROUNDUP FOR MINNESOTA
NATIONAL WEATHER SERVICE TWIN CITIES/CHANHASSEN MN
600 PM CDT FRI MAY 25 2018


NOTE: "FAIR" INDICATES FEW OR NO CLOUDS BELOW 12,000 FEET WITH NO
SIGNIFICANT WEATHER AND/OR OBSTRUCTIONS TO VISIBILITY. N/A MEANS
CURRENT SKY AND/OR WEATHER CONDITIONS ARE NOT AVAILABLE.

MNZ060>063-068>070-260000-
   Twin Cities Metro

CITY           SKY/WX    TMP DP  RH WIND       PRES   REMARKS
TWIN CITIES    LGT RAIN  78  57  48 NW15G24   29.69R
ST PAUL        FAIR      81  55  40 W16G26    29.68R
CRYSTAL        FAIR      78  59  51 S3        29.66F
BLAINE         PTSUNNY   73  57  56 W3        29.67F
LAKEVILLE      FAIR      86  61  42 W8        29.69S
EDEN PRAIRIE   TSTM      73  60  63 NW8       29.69R
SOUTH ST PAUL  FAIR      83  54  36 NW10G20   29.69R
LAKE ELMO      FAIR      82  63  51 SW13G22   29.69R THUNDER
$$
MNZ001>005-007-008-013>017-022>024-027-028-260000-
   Northwest Minnesota

CITY           SKY/WX    TMP DP  RH WIND       PRES   REMARKS
BEMIDJI        FAIR      87  50  28 W10       29.63S
HALLOCK        FAIR      88  50  27 S7        29.51F
ROSEAU         FAIR      86  61  42 S8        29.55F THUNDER
WARROAD        FAIR      86  61  42 SW5       29.56F
THIEF RVR FALL FAIR      86  47  25 SW15      29.59S
CROOKSTON      PTSUNNY   72  63  73 NE8G30    29.60R
FOSSTON        FAIR      82  45  26 SW18G24   29.63R
DETROIT LAKES  FAIR      88  48  25 SW9       29.66F
MOORHEAD       FAIR      93  43  17 W10G22    29.61S
PARK RAPIDS    FAIR      89  49  25 W9G20     29.64F
MAHNOMEN       MOCLDY    88  48  25 W9        29.62S
$$
MNZ006-009>011-018-025>026-260000-
   North Central Minnesota

CITY           SKY/WX    TMP DP  RH WIND       PRES   REMARKS
BAUDETTE       FAIR      86  54  33 W9        29.57F
FLAG ISLAND    FAIR      82  52  34 W10       29.54F
INTL FALLS     FAIR      85  53  33 W13       29.59S
WASKISH        FAIR      84  55  37 CALM      29.60F
BIG FORK       FAIR      86  48  26 W7        29.62S
LONGVILLE      FAIR      86  52  30 NW6       29.64F
GRAND RAPIDS   FAIR      85  55  35 W7        29.65F
CRANE LAKE     FAIR      82  52  34 SW7       29.61F
ORR            FAIR      84  48  28 W6G16     29.59S
COOK           FAIR      84  55  37 SW9       29.62F
WALKER         FAIR      86  48  26 W10       29.63F
$$
MNZ012-019>021-037-260000-
   Northeast Minnesota

CITY           SKY/WX    TMP DP  RH WIND       PRES   REMARKS
DULUTH         FAIR      85  57  38 W10G18    29.65S
ELY            FAIR      84  52  32 W13G18    29.63S
HIBBING        FAIR      84  56  38 W10G17    29.63F
EVELETH        FAIR      84  57  39 W8        29.64F
DULUTH HARBOR  FAIR      82  61  47 SW14      29.62S
TWO HARBORS    FAIR      81  59  47 SW15      29.61R
SILVER BAY     FAIR      88  54  31 W6        29.59S
GRAND MARAIS     N/A     52  49  89 VRB6      29.58F
G MARAIS ARPRT FAIR      77  61  57 CALM      29.64F
$$
MNZ029>031-032-039>041-046>048-054>057-064-260000-
   West Central Minnesota

CITY           SKY/WX    TMP DP  RH WIND       PRES   REMARKS
FERGUS FALLS   FAIR      88  54  31 N6        29.58F
MORRIS         SUNNY     90  54  29 NW3       29.65F
ALEXANDRIA     FAIR      89  59  36 SW13      29.68F
ELBOW LAKE     FAIR      89  52  28 NW8       29.65F
WADENA         FAIR      86  54  32 NW7       29.65F
GLENWOOD       FAIR      84  59  42 SW7       29.69F
BENSON         SUNNY     90  52  27 W14       29.68F
ORTONVILLE     SUNNY     90  52  27 NW12G17   29.67F
MADISON        SUNNY     88  54  31 S21       29.69S
WILLMAR        FAIR      88  52  29 W7        29.71F
$$
MNZ033>034-036-042>043-049>051-058-059-260000-
   Central Minnesota

CITY           SKY/WX    TMP DP  RH WIND       PRES   REMARKS
ST CLOUD       FAIR      88  49  25 MISG      29.66F
SAUK CENTRE    FAIR      87  56  34 W12G18    29.67F
PAYNESVILLE    FAIR      83  63  51 W7        29.69F
AITKIN         FAIR      86  52  30 W8        29.63F
PINE RIVER     FAIR      84  54  34 W7        29.68F
BRAINERD       FAIR      89  53  29 W13       29.65F
STAPLES        FAIR      88  45  22 W15G21    29.65F
LONG PRAIRIE   FAIR      86  55  35 S8        29.68S HAZE
LITTLE FALLS   FAIR      86  57  37 SW6       29.66F
LITCHFIELD     FAIR      82  63  51 SE3       29.70R
BUFFALO        FAIR      74  62  66 CALM      29.69F
MAPLE LAKE     FAIR      80  66  62 CALM      29.69F
HUTCHINSON     FAIR      75  63  66 W3        29.72S
$$
MNZ037-044-045-052-053-260000-
   East Central Minnesota

CITY           SKY/WX    TMP DP  RH WIND       PRES   REMARKS
PRINCETON      FAIR      86  55  35 SW5       29.66F
MORA           FAIR      86  55  35 W8        29.66F
CAMBRIDGE      FAIR      88  63  42 S10G16    29.66F
RUSH CITY      FAIR      85  56  37 W7        29.65F
MOOSE LAKE     FAIR      84  54  34 W5        29.63S
HINCKLEY       FAIR      86  59  39 W6        29.64F
CLOQUET        FAIR      81  55  41 CALM      29.65F
MCGREGOR       FAIR      86  52  30 W8        29.65S
$$
MNZ071>073-080-081-089-090-097-098-260000-
   Southwest Minnesota

CITY           SKY/WX    TMP DP  RH WIND       PRES   REMARKS
MONTEVIDEO     CLOUDY    90  48  24 W12       29.69S
CANBY          CLOUDY    80  65  58 SE7       29.72F
MARSHALL       CLOUDY    73  62  68 CALM      29.72F
REDWOOD FALLS  LGT RAIN  71  58  63 E7        29.71F
OLIVIA         LGT RAIN  73  55  53 SW10      29.71F
PIPESTONE      PTSUNNY   75  57  53 NE6G28    29.75R
WINDOM         CLOUDY    75  52  43 N33G40    29.74R
WORTHINGTON      N/A     86  53  32 NW15G30   29.74R
JACKSON        MOSUNNY   86  54  32 CALM      29.73F
TRACY          MOSUNNY   74  60  61 N7        29.75F
$$
MNZ065>067-074>077-082>085-091>093-260000-
   South Central Minnesota

CITY           SKY/WX    TMP DP  RH WIND       PRES   REMARKS
MANKATO        FAIR      88  56  33 NW5       29.69F
NEW ULM        CLOUDY    79  52  38 NW33G51   29.72R HAZE
ST JAMES       LGT RAIN  82  61  47 N7        29.72R
FAIRMONT       SUNNY     90  57  32 SW12      29.71F
GLENCOE        PTSUNNY   74  63  67 N12G21    29.70S
FARIBAULT      FAIR      88  61  40 CALM      29.70F
OWATONNA       FAIR      84  66  54 S8        29.70F
WASECA         FAIR      82  59  44 SE5       29.72S
ALBERT LEA     FAIR      79  63  57 CALM      29.70F
$$
MNZ078>079-086>088-094>096-260000-
   Southeast Minnesota

CITY           SKY/WX    TMP DP  RH WIND       PRES   REMARKS
ROCHESTER      FAIR      75  64  68 NW6       29.72S
RED WING       FAIR      90  52  27 W9        29.67S
STANTON        FAIR      87  63  45 SW7       29.67F
DODGE CENTER   FAIR      81  61  50 W8        29.71F
WINONA         FAIR      70  64  83 SE9       29.73F
AUSTIN         FAIR      77  64  65 CALM      29.70F
PRESTON        PTSUNNY   76  64  64 N9        29.73S
$$
ABBREVIATIONS USED IN REMARKS
   TC - TEMPERATURES IN CELSIUS
  WCI - WIND CHILL INDEX
   HX - HEAT INDEX
  VSB - VISIBILITY
$$




USA.gov is the U.S. government's official web portal to all federal, state and local government web resources and services.